EW8677 Weather Reports


Display with metric or nautical units.
time (UTC)temp
F
wind
direction
speed
MPH
gust
MPH
rain 1hr
in
rain 24hr
in
rain mn
in
humidity
%
barometer
mb
20181115195938 54 159 5.0 9.0 0.00 0.00 0.00 27 831.4
20181115190206 51 115 2.0 8.0 0.00 0.00 0.00 30 832.6
20181115180002 48 20 3.0 5.0 0.00 0.00 0.00 33 833.8
20181115155957 36 360 3.0 10.0 0.00 0.00 0.00 50 835.0
20181115150001 27 360 2.0 6.0 0.00 0.00 0.00 64 835.0
20181115135957 27 23 4.0 15.0 0.00 0.00 0.00 62 834.6
20181115125951 26 19 4.0 8.0 0.00 0.00 0.00 64 834.6
20181115115944 28 24 7.0 13.0 0.00 0.00 0.00 61 834.6
20181115110026 28 41 1.0 8.0 0.00 0.00 0.00 58 834.8
20181115101333 30 63 3.0 10.0 0.00 0.00 0.00 54 835.0
20181115085959 29 55 3.0 9.0 0.00 0.00 0.00 56 835.3
20181115075946 29 20 3.0 10.0 0.00 0.00 0.00 57 835.2
20181115070220 30 57 5.0 12.0 0.00 0.00 0.00 56 835.3
20181115055943 31 62 3.0 6.0 0.00 0.00 0.00 53 835.4
20181115050005 32 104 4.0 11.0 0.00 0.00 0.00 54 835.5
20181115025958 33 360 3.0 8.0 0.00 0.00 0.00 49 835.3
20181115020004 33 360 2.0 5.0 0.00 0.00 0.00 49 835.4
20181115011332 36 360 2.0 5.0 0.00 0.00 0.00 44 835.3
20181115000011 44 360 0.0 1.0 0.00 0.00 0.00 34 835.2
20181114230001 50 182 3.0 5.0 0.00 0.00 0.00 27 834.9
20181114221335 51 175 6.0 8.0 0.00 0.00 0.00 27 835.1
20181114210003 50 192 4.0 7.0 0.00 0.00 0.00 27 835.6